Location: Lawrence Hall of Science
(37.8785°N, 122.2415°W)
Time: 09:03:51
(UTC-07:00)

Daily predictions for brighter satellites

Satellite Brightness Start Highest point End
(mag) Time Altitude Azimuth Time Altitude Azimuth Time Altitude Azimuth
Cosmos 1607 4.3 20:55:50 10° NW 21:02:10 67° WSW 21:08:19 10° SSE
H-2A R/B 3.5 21:00:32 10° ESE 21:04:36 23° ENE 21:08:42 10° NNE
Meteor 2-11 Rocket 4.4 20:58:35 10° S 21:04:38 81° E 21:10:43 10° N
Cosmos 1269 Rocket 4.3 21:00:50 10° S 21:05:51 46° ESE 21:10:56 10° NNE
Cosmos 2263 Rocket 4.0 21:04:25 10° SW 21:09:40 38° WNW 21:14:56 10° N
GENESIS II 4.4 21:05:54 10° SW 21:09:46 77° WNW 21:13:42 10° NNE
Resurs 1-3 3.7 21:09:52 10° SSE 21:14:14 84° WSW 21:18:39 10° NNW
Cosmos 1812 Rocket 4.0 21:11:36 10° NNW 21:15:54 66° W 21:20:14 10° S
Thor Agena Rocket 3.9 21:13:39 10° N 21:18:43 69° WNW 21:23:43 10° SSW
Cosmos 1437 3.8 21:19:57 10° NNE 21:22:47 29° ENE 21:25:11 13° SE
Iridium 4 Rocket 3.7 21:17:15 10° S 21:22:50 65° E 21:28:01 10° N
ATLAS 2AS CENTAUR R/B 3.0 21:15:11 10° SSW 21:22:52 73° ESE 21:30:57 10° NE
Cosmos 1953 Rocket 3.7 21:18:51 10° S 21:23:04 55° E 21:27:22 10° NNE
In-Cosmos 22 4.2 21:18:38 10° S 21:24:04 64° E 21:29:42 10° NNE
Meteor 2-5 Rocket 3.9 21:19:11 10° S 21:25:07 87° E 21:31:04 10° N
Cosmos 1758 Rocket 3.5 21:23:45 10° S 21:28:11 80° E 21:32:36 10° N
Cosmos 1674 3.7 21:25:09 10° SSE 21:28:21 28° E 21:31:39 10° NNE
BREEZE-M R/B 4.2 21:25:55 10° WNW 21:28:22 19° SW 21:30:18 10° S
ERS-1 Rocket 4.2 21:26:45 11° ESE 21:30:36 27° ENE 21:34:47 10° NNE
Meteor 1-16 Rocket 4.4 21:27:40 10° NNW 21:33:15 78° W 21:39:00 10° S
USA 186 4.3 21:32:05 10° SW 21:34:29 19° W 21:36:48 10° NW
ERS-2 2.8 21:36:10 10° S 21:39:44 53° WSW 21:43:21 10° NNW
Cosmos 1726 3.7 21:37:09 10° NNE 21:40:04 21° ENE 21:41:48 16° ESE
Resurs 01 Rocket 2.8 21:38:27 10° S 21:42:38 42° W 21:46:51 10° NNW
Terra 4.0 21:42:39 10° ENE 21:43:55 11° ENE 21:45:12 10° NE
Cosmos 921 Rocket 3.4 21:42:58 10° N 21:47:20 50° ENE 21:50:23 19° SE
OAO 3 Rocket 3.3 21:44:36 10° W 21:49:30 61° S 21:53:18 16° ESE
USA 215 3.3 21:46:11 15° SE 21:51:46 78° SW 21:58:21 10° NW
Cosmos 1315 Rocket 4.1 21:50:44 10° SSW 21:54:36 43° WNW 21:58:32 10° N
Cosmos 1461 3.8 21:52:07 10° S 21:56:14 35° ESE 22:00:31 10° NE
NOSS 3-4 (A) 3.9 21:54:58 10° S 22:00:35 39° ESE 22:06:22 10° NE
NOSS 3-4 (C) 3.9 21:55:05 10° S 22:00:41 38° ESE 22:06:26 10° NE
ARGOS 3.2 21:59:18 14° SSE 22:03:58 85° WSW 22:09:25 10° NNW
Cosmos 2278 Rocket 2.7 22:00:36 15° SSE 22:04:48 39° ESE 22:10:02 10° NE
Cosmos 1417 Rocket 4.5 22:00:56 10° S 22:07:14 74° E 22:13:32 10° N
MetOp-A 4.2 22:05:29 16° S 22:09:52 78° WSW 22:15:15 10° NNW
Cosmos 220 Rocket 3.9 22:07:44 16° S 22:11:02 61° ESE 22:15:11 10° NNE
APEX 4.2 22:10:56 10° N 22:13:52 30° ENE 22:14:55 25° E
KORONAS-FOTON 3.8 22:15:30 19° S 22:18:13 84° W 22:22:09 10° N
SL-08 RB Rocket 3.9 22:17:30 21° S 22:20:37 71° WSW 22:25:18 10° NNW
SL-14 R/B 3.8 22:20:17 35° ESE 22:21:04 39° E 22:24:44 10° NNE
Cosmos 1844 Rocket 3.8 22:15:49 10° SW 22:21:13 45° WNW 22:26:39 10° N
Cosmos 1745 Rocket 4.1 22:18:57 10° N 22:25:13 63° E 22:28:39 27° SSE
COSMOS 2406 3.2 22:19:39 10° NNW 22:25:27 84° ENE 22:28:31 29° SSE
SPOT 5 3.2 22:24:53 30° SE 22:27:17 61° ENE 22:32:30 10° N
Cosmos 1346 Rocket 4.0 22:23:37 10° NNW 22:27:22 38° W 22:30:09 16° SSW
Cosmos 2084 4.4 22:24:15 10° NW 22:27:43 32° WSW 22:29:15 24° SSW
SL-08 R/B 4.4 22:22:06 10° N 22:28:18 85° E 22:32:12 24° S
NOSS 2-2 (D) 4.1 22:29:53 32° E 22:29:53 32° E 22:33:00 10° NE
Cosmos 807 4.2 22:29:28 55° E 22:29:28 55° E 22:32:33 10° NNE
Cosmos 1110 Rocket 4.2 22:26:04 10° NNW 22:31:11 64° WSW 22:34:03 26° S
Cosmos-2242 4.3 22:27:46 10° NNW 22:31:51 38° W 22:35:05 15° SSW
ATLAS 5 CENTAUR R/B 1.8 22:37:14 41° SSE 22:38:11 49° ESE 22:42:46 10° NE
Cosmos 1626 3.1 22:40:51 31° ENE 22:40:51 31° ENE 22:43:47 10° NNE
Helios 1A 2.9 22:41:42 47° SSE 22:42:51 82° ENE 22:47:05 10° N
Cosmos 1331 Rocket 4.4 22:38:22 10° NNW 22:43:28 55° WSW 22:46:01 28° S
SPOT 1/Viking Rocket 3.4 22:41:24 36° SSE 22:43:34 84° ENE 22:48:43 10° NNW
H-2A R/B 3.0 22:40:01 18° SSW 22:43:39 43° W 22:48:47 10° NNW
ATLAS 3B R/B 2.5 22:37:39 10° NNW 22:44:18 89° ENE 22:47:22 34° SSE
Helios 1B rocket 2.3 22:41:36 10° NNE 22:45:41 65° ESE 22:46:22 54° SSE
USA 238 DEB 4.0 22:41:47 10° NW 22:48:53 66° WSW 22:52:33 31° S
USA 238 4.0 22:41:53 10° NW 22:48:59 67° WSW 22:52:38 31° S
Cosmos 2297 4.3 22:48:47 34° ESE 22:49:14 34° ESE 22:54:20 10° NE
S3M 4.4 22:44:53 14° SSW 22:50:24 65° W 22:56:47 10° N
Cosmos 1340 3.3 22:47:33 10° NNW 22:51:14 50° W 22:52:12 39° SW
Cosmos 1842 Rocket 3.7 22:47:52 10° NNW 22:52:11 67° W 22:53:33 41° SSW
Cosmos 2082 Rocket 3.3 22:49:39 10° N 22:54:43 32° ENE 22:56:41 25° E
Cosmos 1833 Rocket 3.6 22:50:03 10° N 22:55:12 36° ENE 22:57:01 29° E
NOSS 2-2 (C) 3.1 22:55:16 70° SE 22:55:21 70° ESE 22:59:26 10° NE
ATLAS 3B CENTAUR R/B 3.8 22:41:42 10° WSW 22:58:18 41° S 23:01:27 33° SE
Cosmos 1709 Rocket 4.1 22:52:22 10° N 22:58:28 57° E 23:00:25 40° SE
NOSS 3-2 (A) 4.0 22:52:49 10° NNW 23:00:33 86° WSW 23:04:29 36° SSE
Landsat 7 3.8 23:00:14 48° S 23:01:33 78° WSW 23:06:19 10° NNW
CZ-2C R/B 3.0 22:57:00 10° NNE 23:02:06 42° E 23:02:37 41° ESE
Spot 1 4.1 23:02:42 59° ESE 23:03:19 69° ENE 23:07:53 10° N
ERS-1 Rocket 4.3 23:06:45 21° SW 23:09:14 32° W 23:13:45 10° NW
Cosmos 1455 4.0 23:06:40 10° NNE 23:09:00 21° ENE 23:09:00 21° ENE
Cosmos 1300 3.0 23:07:29 10° NNW 23:11:15 58° W 23:11:27 57° WSW
Cosmos 1302 Rocket 4.4 23:07:24 10° NNW 23:12:34 55° WSW 23:14:05 41° SSW
Aureole 3 Rocket 4.1 23:11:17 37° S 23:14:29 73° E 23:20:16 10° NNE
Cosmos 1726 4.2 23:12:23 10° NW 23:15:11 20° W 23:16:22 17° WSW
RESURS DK-1 2.8 23:17:46 50° ENE 23:17:46 50° ENE 23:21:03 10° NNE
Terra 1.8 23:20:16 62° SSW 23:20:59 77° WSW 23:25:45 10° NNW
Cosmos 2221 2.7 23:17:15 10° NNW 23:21:31 61° W 23:21:54 58° WSW
Okean 3 Rocket 3.4 23:21:36 84° S 23:21:45 89° E 23:26:09 10° N
Meteor 1-29 3.8 23:20:10 10° N 23:23:10 47° WNW 23:23:10 47° WNW
NOSS 3-2 (C) 4.0 23:18:47 10° NW 23:26:31 82° WSW 23:29:39 43° SSE
Cosmos 1992 Rocket 4.0 23:23:10 10° NNW 23:28:23 67° ENE 23:28:59 61° ESE
EO 1 Delta rocket 4.2 23:24:14 10° NNE 23:30:35 69° E 23:31:21 60° SE
Cosmos 1328 4.2 23:32:34 55° WNW 23:32:34 55° WNW 23:36:23 10° N
Cosmos 2315 Rocket 4.1 23:31:49 39° SSW 23:34:18 71° W 23:40:39 10° N
COBE Rocket 4.0 23:29:57 10° NNE 23:35:02 60° E 23:35:05 60° ESE
CZ-2C R/B 3.6 23:41:41 49° SSW 23:42:59 61° W 23:48:42 10° NNW
ADEOS Rocket 4.0 23:40:02 10° NE 23:45:32 33° E 23:45:35 33° E
Meteor 1-11 4.2 23:45:28 59° SSW 23:46:35 81° W 23:52:25 10° N
Cosmos 2278 Rocket 4.0 23:44:08 10° WSW 23:48:57 28° WNW 23:53:47 10° N
Spot 4 3.8 23:51:21 79° ENE 23:51:21 79° ENE 23:56:11 10° N
Cosmos 2184 Rocket 4.1 23:46:08 10° N 23:52:22 60° E 23:53:16 55° ESE
